Weather History for Kingman, AZ

Change the Weather History Date:

Friday, September 14, 2012

  Actual Average Record
Temperature  
Mean Temperature 78 °F 76 °F  
Max Temperature 92 °F 91 °F 102 °F (1971)
Min Temperature 64 °F 62 °F 46 °F (1994)
Degree Days  
Heating Degree Days 0 0  
Month to date heating degree days 0 0  
Since 1 July heating degree days 0 0  
Cooling Degree Days 13 12  
Month to date cooling degree days 206 190  
Year to date cooling degree days 2034 1891  
Growing Degree Days 28 (Base 50)    
Moisture  
Dew Point 39 °F    
Average Humidity 31    
Maximum Humidity 48    
Minimum Humidity 13    
Precipitation  
Precipitation 0.00 in 0.05 in 0.23 in (1959)
Month to date precipitation 0.25 0.64  
Year to date precipitation 6.52 5.91  
Sea Level Pressure  
Sea Level Pressure 30.02 in    
Wind  
Wind Speed 10 mph (East)    
Max Wind Speed 20 mph    
Max Gust Speed 24 mph    
Visibility 10 miles    
Events      
T = Trace of Precipitation, MM = Missing Value Source: NWS Daily Summary

Daily Weather History Graph

Daily Weather History Graph

Search for Another Location

Airport:

Trip Planner

Search our weather history database for the weather conditions in past years. The results will help you decide how hot, cold, wet, or windy it might be!

Date:

Astronomy

Sep. 14, 2012 Rise Set
Actual Time 6:18 AM MST 6:43 PM MST
Civil Twilight 5:52 AM MST 7:08 PM MST
Nautical Twilight 5:22 AM MST 7:38 PM MST
Astronomical Twilight 4:52 AM MST 8:08 PM MST
Moon 4:48 AM MST (9/14) 5:42 PM MST (9/14)
Length of Visible Light 13h 16m
Length of Day
12h 25m
Waning Crescent, 2% of the Moon is Illuminated
Sep 14
Waning Crescent
Sep 15
New
Sep 22
First Quarter
Sep 29
Full
Oct 8
Last Quarter

Hourly Weather History & Observations

Time (MST) Temp. Dew Point Humidity Pressure Visibility Wind Dir Wind Speed Gust Speed Precip Events Conditions
12:51 AM 66.9 °F 39.0 °F 36% 30.03 in 10.0 mi ENE 8.1 mph - N/A   Clear
1:51 AM 66.9 °F 39.9 °F 37% 30.02 in 10.0 mi ENE 8.1 mph - N/A   Clear
2:51 AM 68.0 °F 43.0 °F 40% 30.01 in 10.0 mi ESE 11.5 mph - N/A   Clear
3:51 AM 68.0 °F 44.1 °F 42% 30.02 in 10.0 mi Variable 3.5 mph - N/A   Clear
4:51 AM 66.0 °F 45.0 °F 47% 30.04 in 10.0 mi East 8.1 mph - N/A   Clear
5:51 AM 64.9 °F 45.0 °F 48% 30.06 in 10.0 mi ENE 6.9 mph - N/A   Clear
6:51 AM 68.0 °F 44.1 °F 42% 30.08 in 10.0 mi ESE 10.4 mph - N/A   Clear
7:51 AM 73.0 °F 44.1 °F 35% 30.09 in 10.0 mi East 9.2 mph - N/A   Clear
8:51 AM 78.1 °F 44.1 °F 30% 30.09 in 10.0 mi Calm Calm - N/A   Clear
9:51 AM 82.0 °F 37.9 °F 21% 30.09 in 10.0 mi East 13.8 mph - N/A   Clear
10:51 AM 84.9 °F 41.0 °F 21% 30.08 in 10.0 mi ESE 13.8 mph 19.6 mph N/A   Clear
11:51 AM 87.1 °F 39.0 °F 18% 30.07 in 10.0 mi ESE 8.1 mph - N/A   Clear
12:51 PM 89.1 °F 37.9 °F 16% 30.04 in 10.0 mi ENE 4.6 mph - N/A   Clear
1:51 PM 91.0 °F 36.0 °F 14% 30.01 in 10.0 mi ENE 10.4 mph - N/A   Clear
2:51 PM 91.0 °F 34.0 °F 13% 29.98 in 10.0 mi NE 10.4 mph 21.9 mph N/A   Clear
3:51 PM 91.0 °F 33.1 °F 13% 29.96 in 10.0 mi ENE 12.7 mph 19.6 mph N/A   Clear
4:51 PM 91.0 °F 34.0 °F 13% 29.96 in 10.0 mi NE 11.5 mph - N/A   Clear
5:51 PM 88.0 °F 36.0 °F 16% 29.96 in 10.0 mi ENE 8.1 mph 17.3 mph N/A   Clear
6:51 PM 82.9 °F 36.0 °F 19% 29.97 in 10.0 mi East 9.2 mph - N/A   Clear
7:51 PM 73.9 °F 37.0 °F 26% 29.99 in 10.0 mi SE 10.4 mph - N/A   Clear
8:51 PM 75.0 °F 37.0 °F 25% 30.00 in 10.0 mi SE 12.7 mph - N/A   Clear
9:51 PM 73.9 °F 37.0 °F 26% 30.00 in 10.0 mi SE 15.0 mph - N/A   Clear
10:51 PM 73.0 °F 37.0 °F 27% 30.01 in 10.0 mi ESE 11.5 mph - N/A   Clear
11:51 PM 72.0 °F 39.0 °F 30% 30.00 in 10.0 mi ESE 15.0 mph - N/A   Clear